Find Starlink 36997

NORAD ID: 68248 Int'l Des: 2026-054 Owner: SPXS Country: US Constellation: starlink operational
LEOCIRCULAR

リアルタイム位置

3D地球を読み込み中...

Starlink 36997について

説明を読み込み中...

次回通過

Passes for default location (London). Set your location on the main map for personalized predictions.

高度履歴

Loading altitude history...

軌道要素

1 68248U 26054S 26122.16670139 .00041546 00000-0 13722-2 0 9998
2 68248 53.1606 48.6526 0001190 82.7738 57.9277 15.31009852 6005
Epoch: May 2, 2026 • Age: 8 hours

現在のステータス

高度 488.0 km
速度 7.62 km/s
衛星直下点 -43.35°S, 132.59°W
打ち上げ日 Mar 17, 2026
運用期間 0.1 years
タイプ internet

技術仕様

分類 Payload
質量 575.00 kg
乾燥質量 530.00 kg
総質量 575.00 kg
長さ 0.30 m
直径 4.10 m
スパン 29.00 m
形状 Box + pan
製造者 SPXS
バスタイプ Starlink V2MO
フェーズステータス In Orbit
所有者/国 SPXS/US

Most Searched